Regional Weather Roundup
Issued by NWS

Home | Current Version | Previous Version | Graphics & Text | Print | Product List | Glossary On
Versions: 1 2 3 4 5 6 7 8 9 10 11 12 13 14 15 16 17 18 19 20 21 22 23 24 25 26 27 28 29 30 31 32 33 34 35 36 37 38 39 40 41 42 43 44 45 46 47 48 49 50
790
ASUS43 KMPX 240201
RWRMN
WEATHER ROUNDUP FOR MINNESOTA
NATIONAL WEATHER SERVICE TWIN CITIES/CHANHASSEN MN
900 PM CDT SUN JUL 23 2017


NOTE: "FAIR" INDICATES FEW OR NO CLOUDS BELOW 12,000 FEET WITH NO
SIGNIFICANT WEATHER AND/OR OBSTRUCTIONS TO VISIBILITY. N/A MEANS
CURRENT SKY AND/OR WEATHER CONDITIONS ARE NOT AVAILABLE.

MNZ060>063-068>070-240300-
   Twin Cities Metro

CITY           SKY/WX    TMP DP  RH WIND       PRES   REMARKS
TWIN CITIES    PTCLDY    71  57  61 NE10      29.98R
ST PAUL        CLEAR     69  59  70 NE7       29.99R
CRYSTAL        CLEAR     69  55  60 NE7       29.97R
BLAINE         PTCLDY    70  59  68 NE3       29.99R
LAKEVILLE      CLEAR     64  57  77 CALM      29.98R
EDEN PRAIRIE   CLEAR     71  56  58 NE7       29.97R
SOUTH ST PAUL  CLEAR     69  57  65 NE7       29.98R
LAKE ELMO      FAIR      64  59  82 NE7       30.00R
$$
MNZ001>005-007-008-013>017-022>024-027-028-240300-
   Northwest Minnesota

CITY           SKY/WX    TMP DP  RH WIND       PRES   REMARKS
BEMIDJI        CLEAR     68  58  70 CALM      30.00S
HALLOCK        CLEAR     72  66  83 CALM      29.95S
ROSEAU         CLEAR     70  63  78 SE5       29.97S
WARROAD        CLEAR     70  63  78 SE3       29.98S
CROOKSTON      PTCLDY    73  63  68 S3        29.98S
FOSSTON        CLEAR     66  61  82 CALM      30.00S
DETROIT LAKES  MOCLDY    70  61  73 E7        30.01S
MOORHEAD       CLEAR     72  63  73 CALM      29.98S
PARK RAPIDS    CLEAR     70  57  63 E3        30.01S
MAHNOMEN       FAIR      69  61  76 E3        29.99S
$$
MNZ006-009>011-018-025>026-240300-
   North Central Minnesota

CITY           SKY/WX    TMP DP  RH WIND       PRES   REMARKS
BAUDETTE       CLEAR     69  61  75 CALM      29.97F
FLAG ISLAND    CLEAR     72  55  56 CALM      29.96S
INTL FALLS     LGT RAIN  62  58  86 CALM      29.99R
WASKISH        CLEAR     70  61  73 CALM      29.99S
BIG FORK       CLEAR     63  59  88 CALM      30.01R
LONGVILLE      CLEAR     63  61  94 CALM      30.01S
GRAND RAPIDS   CLEAR     63  61  93 CALM      30.03S
CRANE LAKE     CLEAR     59  57  94 CALM      30.01S
ORR            CLEAR     63  52  67 CALM      29.99R
COOK           CLEAR     63  57  82 CALM      30.02R
WALKER         FAIR      64  60  86 CALM      30.01S
$$
MNZ012-019>021-037-240300-
   Northeast Minnesota

CITY           SKY/WX    TMP DP  RH WIND       PRES   REMARKS
DULUTH         PTCLDY    59  56  89 CALM      30.03S
ELY            CLEAR     63  54  72 S5        30.03R
HIBBING        MOCLDY    62  61  96 CALM      30.01R
EVELETH        PTCLDY    64  56  76 SE7       30.04R
DULUTH HARBOR  CLEAR     61  57  88 E8        30.03R
TWO HARBORS    CLEAR     59  54  82 CALM      30.02R
SILVER BAY     CLEAR     57  55  94 CALM      30.01S
GRAND MARAIS     N/A     55  54  96 W3        30.02R
G MARAIS ARPRT CLEAR     57  45  62 CALM      30.05S
$$
MNZ029>031-032-039>041-046>048-054>057-064-240300-
   West Central Minnesota

CITY           SKY/WX    TMP DP  RH WIND       PRES   REMARKS
FERGUS FALLS   CLEAR     72  59  64 CALM      29.98S
WHEATON        CLEAR     68  61  77 CALM      30.01S
MORRIS         CLEAR     72  61  68 CALM      29.99S
ALEXANDRIA     PTCLDY    69  61  75 E7        30.01S
ELBOW LAKE     FAIR      69  62  79 CALM      30.00R
WADENA         CLEAR     66  57  72 CALM      30.01R
GLENWOOD       PTCLDY    70  61  73 E5        30.01S
BENSON         CLEAR     68  61  77 N5        30.00S
ORTONVILLE     CLEAR     70  59  68 CALM      30.00S
MADISON        CLEAR     72  61  68 NW3       30.00S
WILLMAR        FAIR      70  63  78 NE3       30.00S
$$
MNZ033>034-036-042>043-049>051-058-059-240300-
   Central Minnesota

CITY           SKY/WX    TMP DP  RH WIND       PRES   REMARKS
ST CLOUD       CLEAR     67  61  81 E5        30.00R
SAUK CENTRE    FAIR      66  61  83 CALM      30.00S
PAYNESVILLE    CLEAR     69  60  71 NE3       30.00R
AITKIN         CLEAR     64  59  82 CALM      30.01R
PINE RIVER     CLEAR     66  61  82 CALM      30.04S
BRAINERD       CLEAR     67  58  72 E3        30.01R
STAPLES        CLEAR     66  57  72 CALM      30.01S
LONG PRAIRIE   FAIR      64  59  82 NE5       30.02R
LITTLE FALLS   CLEAR     64  59  82 CALM      30.01R
LITCHFIELD     CLEAR     72  61  68 CALM      30.00R
BUFFALO        CLEAR     68  57  68 NE5       30.01R
MAPLE LAKE     CLEAR     68  60  75 NE5       30.01R
HUTCHINSON     CLEAR     70  59  69 NE6       30.00R
$$
MNZ037-044-045-052-053-240300-
   East Central Minnesota

CITY           SKY/WX    TMP DP  RH WIND       PRES   REMARKS
PRINCETON      CLEAR     66  59  77 NE3       30.00S
MORA           CLEAR     63  55  77 CALM      30.02S
CAMBRIDGE      CLEAR     68  57  68 CALM      29.99S
RUSH CITY      PTCLDY    64  58  82 NE3       30.01S
MOOSE LAKE     CLEAR     61  55  82 CALM      30.01R
HINCKLEY       FAIR      63  59  88 N5        30.01S
CLOQUET        CLEAR     61  55  82 CALM      30.04R
MCGREGOR       CLEAR     64  59  82 SE6       30.02S
$$
MNZ071>073-080-081-089-090-097-098-240300-
   Southwest Minnesota

CITY           SKY/WX    TMP DP  RH WIND       PRES   REMARKS
MONTEVIDEO     CLEAR     70  57  64 CALM      30.00R
GRANITE FALLS  CLEAR     70  63  79 W3        30.01R
CANBY          CLEAR     69  59  70 CALM      30.02R
MARSHALL       CLEAR     69  63  81 NW5       30.00S
REDWOOD FALLS  CLEAR     72  59  63 N3        29.98R
OLIVIA         CLEAR     70  63  78 NE3       29.98S
PIPESTONE      CLEAR     70  59  68 NE5       30.02S
WINDOM         CLEAR     66  61  82 CALM      30.00S
WORTHINGTON    CLEAR     66  60  81 N5        30.01S
JACKSON        CLEAR     64  61  88 CALM      30.00S
SLAYTON        HVY RAIN  67  59  77 CALM      30.02S
$$
MNZ065>067-074>077-082>085-091>093-240300-
   South Central Minnesota

CITY           SKY/WX    TMP DP  RH WIND       PRES   REMARKS
MANKATO        CLOUDY    71  61  70 N7        29.98R
NEW ULM        CLOUDY    73  59  60 NE5       29.98R
ST JAMES       MOCLDY    68  63  83 W3        29.99R
FAIRMONT       CLEAR     67  63  87 N5        29.99R
GLENCOE        PTCLDY    70  63  77 CALM      29.98R
FARIBAULT      CLEAR     66  59  77 N5        29.99R
OWATONNA       CLEAR     66  59  77 NE6       29.99R
WASECA         MOCLDY    70  59  68 NE7       29.99R
ALBERT LEA     PTCLDY    68  61  77 N7        29.98R
$$
MNZ078>079-086>088-094>096-240300-
   Southeast Minnesota

CITY           SKY/WX    TMP DP  RH WIND       PRES   REMARKS
ROCHESTER      CLEAR     65  57  75 N13       29.98R
RED WING       PTCLDY    66  55  68 NE5       29.98R
STANTON        CLEAR     66  59  77 NE3       29.97R
DODGE CENTER   CLEAR     64  57  77 NE7       29.99R
WINONA         MOCLDY    70  59  68 N7        29.96R
AUSTIN         CLEAR     66  59  77 N6        29.97R
PRESTON        CLEAR     64  57  76 N9        29.98R
$$
ABBREVIATIONS USED IN REMARKS
   TC - TEMPERATURES IN CELSIUS
  WCI - WIND CHILL INDEX
   HX - HEAT INDEX
  VSB - VISIBILITY
$$




USA.gov is the U.S. government's official web portal to all federal, state and local government web resources and services.